Regional Weather Roundup
Issued by NWS

Home | Current Version | Previous Version | Graphics & Text | Print | Product List | Glossary On
Versions: 1 2 3 4 5 6 7 8 9 10 11 12 13 14 15 16 17 18 19 20 21 22 23 24 25 26 27 28 29 30 31 32 33 34 35 36 37 38 39 40 41 42 43 44 45 46 47 48 49 50
000
ASUS45 KTFX 041504
RWRMT
MONTANA HOURLY WEATHER ROUNDUP
NATIONAL WEATHER SERVICE GREAT FALLS MT
804 AM MST WED MAR 4 2015

NOTE: "FAIR" INDICATES FEW OR NO CLOUDS BELOW 12000 FEET WITH NO
SIGNIFICANT WEATHER AND/OR OBSTRUCTIONS TO VISIBILITY.

* THESE STATIONS ARE NOT UNDER NWS QUALITY CONTROL. THEY DO NOT
   REPORT WEATHER SUCH AS PRECIPITATION OR FOG.

MTZ001>007-043-041600-
WEST OF THE DIVIDE
CITY           SKY/WX    TMP DP  RH WIND       PRES   REMARKS
KALISPELL      SUNNY      9   5  84 NW3       30.22R
MISSOULA       SUNNY     12   9  88 CALM      30.25R
BUTTE          SUNNY     -4  -9  79 SE3       30.11R
MULLAN PASS    SUNNY     12   3  67 SW7       30.03R WCI   1
* ANACONDA     SUNNY      9   1  70 SE9        N/A   WCI  -4
* ESSEX        N/A        1  -4  79 SE4G9      N/A
* LINCOLN      N/A       -8 -14  74 N/A        N/A
* LOOKOUT PASS N/A       11   5  77 N/A        N/A
* POLSON       N/A       10   7  88 N/A        N/A
* RONAN APT    SUNNY     10   5  80 N/A        N/A
* SEELEY LAKE  N/A       -8 -14  74 N1         N/A
* THOMP F APT  SUNNY      4  -3  72 N/A        N/A
$$

MTZ008-052>055-041600-
SOUTHWEST MONTANA
CITY           SKY/WX    TMP DP  RH WIND       PRES   REMARKS
BOZEMAN        PTSUNNY    1  -2  87 CALM      30.17R
DILLON         SUNNY      3  -2  79 SW6       30.12R WCI  -8
* W YELLOWSTON PTCLDY   -16 -23  70 N/A        N/A
* THREE FORKS  SUNNY      1  -6  72 N/A        N/A
* BOULDER HILL N/A        6   0  76 SW8        N/A   WCI  -7
* MONIDA PASS  N/A        4  -2  76 W2         N/A
* RAYNOLDS PAS N/A       -3 -47   9 VRB3       N/A
* WHITEHALL    N/A      N/A N/A N/A W1         N/A
* WISE RIVER   N/A        2  -4  76 E1G6       N/A
$$

MTZ009>010-012-014-046-048-049-054-041600-
EAST SLOPES AND CENTRAL MONTANA
CITY           SKY/WX    TMP DP  RH WIND       PRES   REMARKS
CUT BANK       SUNNY      3  -6  66 CALM      30.08F
GREAT FALLS    SUNNY      9   0  66 S6        30.12S WCI  -1
HELENA         SUNNY      7   0  73 W3        30.20R
* DEARBORN     N/A       -4  -8  83 N/A        N/A
* EAST GLACIER N/A        9  -1  63 NW8G15     N/A   WCI  -3
* MONARCH      N/A       -2  -7  79 S8         N/A   WCI -17
* PENDROY      N/A        1  -6  72 W4         N/A
* ROGERS PASS  N/A        7   0  73 SE4        N/A
* SWEET GRASS  N/A        2  -9  59 SW8        N/A   WCI -12
$$

MTZ011-013-016-021-035-040-045-047-050-051-041600-
NORTH CENTRAL MONTANA
CITY           SKY/WX    TMP DP  RH WIND       PRES   REMARKS
HAVRE          SUNNY      1  -4  79 NW3       30.21S
LEWISTOWN      SUNNY     -2  -9  72 SE5       30.11S WCI -13
* N BAR RANCH  SUNNY      3 -13  47 NW7       30.09R WCI  -9
* CHESTER      N/A       -2  -9  72 W1         N/A
* DENTON       N/A        5  -2  72 SE6        N/A   WCI  -6
* GEYSER       N/A        7  -1  69 W8         N/A   WCI  -6
* JUDITH GAP   N/A        2  -4  76 NW6        N/A   WCI  -9
* LOMA         N/A        5  -1  76 SW4        N/A
$$

MTZ017>020-022>027-061-062-041600-
NORTHEAST MONTANA
CITY           SKY/WX    TMP DP  RH WIND       PRES   REMARKS
GLASGOW        SUNNY      0  -9  65 W6        30.27R WCI -12
JORDAN         SUNNY      1  -4  79 CALM      30.23R
SIDNEY         SUNNY     -2 -11  65 NW13      30.33R WCI -21
WOLF POINT     SUNNY      0  -9  65 NE3       30.32R
* BEAVER HILL  N/A       -4 -11  71 W12        N/A   WCI -22
* CIRCLE       N/A       -2  -7  79 NW2        N/A
* LINDSAY DVD  N/A       -4 -10  75 NW11G16    N/A   WCI -22
* NAVAJO       N/A      -12 -18  74 NW11       N/A   WCI -32
* SACO         N/A       -5  -9  82 N/A        N/A
$$

MTZ028>042-056>058-041600-
SOUTHCENTRAL AND SOUTHEAST MONTANA
CITY           SKY/WX    TMP DP  RH WIND       PRES   REMARKS
BAKER          PTCLDY     0  -9  65 NW15      30.21R WCI -19
BILLINGS       SUNNY      7  -4  60 S7        30.18R WCI  -5
LIVINGSTON     SUNNY      3  -8  60 NW15      30.12R WCI -16
MILES CITY     SUNNY      1  -4  79 NW7       30.27R WCI -12
* LAUREL APT   SUNNY      3  -8  60 N/A        N/A
* ROUNDUP APT  SUNNY      7  -8  50 N/A        N/A
* ALZADA       N/A        5  -3  69 W12        N/A   WCI -11
* HYSHAM       N/A        6  -6  57 W2         N/A
* REED POINT   N/A        1  -1  91 N/A        N/A
* ROSCOE HILL  N/A        5 -10  49 SE5        N/A   WCI  -5
$$

REGIONAL REPORTS...DAKOTAS
CITY           SKY/WX    TMP DP  RH WIND       PRES   REMARKS
WILLISTON      SUNNY     -9 -18  64 NW13      30.31R WCI -30
DICKINSON      SUNNY     -2 -11  65 NW17G24   30.19R WCI -23
BEACH          SUNNY     -2  -9  72 NW15      30.23R WCI -22
CROSBY         SUNNY    -13 -20  70 NW12      30.30R WCI -34
WATFORD CITY   SUNNY     -8 -17  64 N12       30.27R WCI -28
BISMARCK       SUNNY     -2 -15  53 NW18G26   30.28R WCI -24
GRAND FORKS    SUNNY     -6 -15  64 NW15      30.24R WCI -27
FARGO          SUNNY     -2 -11  65 NW17      30.24R WCI -23
BUFFALO SD     PTCLDY     1  -6  72 NW21      30.11R WCI -21
RAPID CITY     SUNNY     10   1  67 N18       30.18R WCI  -8
$$

REGIONAL REPORTS...WYOMING/IDAHO/WASHINGTON
CITY           SKY/WX    TMP DP  RH WIND       PRES   REMARKS
GILLETTE       PTCLDY     5  -6  60 W7        30.13R WCI  -7
SHERIDAN       CLOUDY     7   0  73 CALM      30.17R
CODY           PTCLDY     3   0  87 N3        30.10R
YELLOWSTONE LA PTCLDY   -17 -20  86 CALM      30.01R
SALMON         PTCLDY    14  10  84 CALM      30.22R
MULLAN PASS    SUNNY     12   3  67 SW7       30.03S WCI   1
SAND POINT     SUNNY     16  14  92 CALM      30.26R
SPOKANE        PTSUNNY   21  12  68 SE6       30.22R WCI  13

$$



USA.gov is the U.S. government's official web portal to all federal, state and local government web resources and services.